Location: Newark
(48.1500°N, 2.9667°W)
Time: 04:23:50
(UTC+00:00)

Transit 2A - Pass Details

Date: 24 January 2020
Orbit: 600 x 959 km, 66.7° (Epoch: 19 February)

Event Time Altitude Azimuth Distance (km) Brightness Sun altitude
Rises 20:05:51 0° 200° (SSW) 2,899 9.2 -31.1°
Enters shadow 20:06:39 - 198° (SSW) 2,579 8.9 -31.2°
Reaches altitude 10° 20:08:11 10° 195° (SSW) 1,969 - -31.4°
Maximum altitude 20:12:26 52° 119° (ESE) 750 - -32.1°
Drops below altitude 10° 20:16:39 10° 43° (NE) 1,953 - -32.8°
Sets 20:18:57 0° 39° (NE) 2,874 - -33.2°
